Location: Caltech
(34.1382°N, 118.1253°W)
Time: 13:02:06
(UTC-07:00)

OPAL - Visible Passes

Search period start: 29 July 2015 00:00
Search period end: 08 August 2015 00:00
Orbit: 743 x 796 km, 100.2° (Epoch: 28 July)

Date Brightness Start Highest point End Pass type
(mag) Time Alt. Az. Time Alt. Az. Time Alt. Az.
29 Jul 7.6 22:05:33 10° N 22:10:33 73° WNW 22:12:55 31° SSW visible
30 Jul 7.7 21:30:22 10° NNE 21:35:09 47° E 21:36:52 34° SSE visible
30 Jul 9.9 23:10:26 10° NNW 23:13:45 17° WNW 23:16:53 10° WSW visible
31 Jul 8.8 20:56:02 10° NE 20:59:33 20° E 21:00:49 18° ESE visible
31 Jul 8.7 22:33:58 10° N 22:38:36 39° WNW 22:41:06 23° WSW visible
01 Aug 7.4 21:58:19 10° NNE 22:03:21 89° ESE 22:05:04 43° SSW visible
02 Aug 8.0 21:23:18 10° NNE 21:27:55 37° E 21:29:00 33° SE visible
02 Aug 9.6 23:02:48 10° NNW 23:06:37 22° WNW 23:09:17 14° WSW visible
03 Aug 9.0 20:49:22 10° ENE 20:52:14 16° E 20:52:57 15° ESE visible
03 Aug 8.3 22:26:36 10° N 22:31:27 49° WNW 22:33:14 33° WSW visible
04 Aug 7.3 21:51:08 10° NNE 21:56:09 71° ESE 21:57:11 54° SSE visible
04 Aug 10.3 23:32:36 10° NW 23:34:33 12° WNW 23:36:12 10° W visible
05 Aug 8.3 21:16:19 10° NE 21:20:39 30° E 21:21:07 29° ESE visible
05 Aug 9.3 22:55:16 10° N 22:59:28 27° WNW 23:01:24 21° WSW visible
06 Aug 9.3 20:43:02 10° ENE 20:44:55 12° E 20:45:04 12° E visible
06 Aug 7.8 22:19:18 10° N 22:24:16 62° WNW 22:25:21 49° WSW visible
07 Aug 7.5 21:43:58 10° NNE 21:48:55 56° ESE 21:49:17 55° ESE visible
07 Aug 10.1 23:24:32 10° NNW 23:27:26 15° WNW 23:29:34 12° W visible
